Regional Weather Roundup
Issued by NWS New Orleans/Baton Rouge, LA

Home | Current Version | Previous Version | Text Only | Print | Product List | Glossary On
Versions: 1 2 3 4 5 6 7 8 9 10 11 12 13 14 15 16 17 18 19 20 21 22 23 24 25 26 27 28 29 30 31 32 33 34 35 36 37 38 39 40 41 42 43 44 45 46 47 48 49 50
000
ASUS44 KLIX 242013
RWRLIX
NEW ORLEANS REGIONAL WEATHER ROUNDUP
NATIONAL WEATHER SERVICE NEW ORLEANS LA
300 PM CDT SUN SEP 24 2017

NOTE: "FAIR" INDICATES FEW OR NO CLOUDS BELOW 12,000 FEET WITH NO
      SIGNIFICANT WEATHER AND/OR OBSTRUCTIONS TO VISIBILITY.
      SKY/WX - SKY CONDITION AND SIGNIFICANT WEATHER.
      TMP - AIR TEMPERATURE.     DP    - DEWPOINT TEMPERATURE.
      RH  - RELATIVE HUMIDITY.   PRES  - PRESSURE.
      HI  - HEAT INDEX.          WCI   - WIND CHILL INDEX.

*  THESE STATIONS ARE NOT NWS OR FAA STATIONS AND ARE NOT UNDER
   NWS QUALITY CONTROL.

LAZ038-040-048-061>063-065>067-069-242100-
SOUTHEAST LOUISIANA

CITY           SKY/WX    TMP DP  RH WIND       PRES   REMARKS
N.O. INTL ARPT PTSUNNY   87  70  56 E14       29.89F
N.O. LAKEFRONT MOSUNNY   87  70  56 E17       29.90F
N.O. DOWNTOWN*   N/A     86  70  58 VRB6G18   29.91F
RESERVE*         N/A     91  67  45 E10       29.90F
SLIDELL        MOSUNNY   87  69  54 E12       29.90F
BATON ROUGE    MOSUNNY   91  63  39 E9        29.89F
BOOTHVILLE     MOSUNNY   82  73  74 E16G22    29.91F
BELLE CHASSE   NOT AVBL
BOGALUSA*        N/A     84  66  54 SE8       29.93S THUNDER
GALLIANO*      PTCLDY    87  69  55 E9        29.89F
NEW ROADS*       N/A     86  68  54 E7        29.90F
GONZALES*        N/A     90  67  46 E7        29.89F
HAMMOND*       PTSUNNY   86  68  54 S3        29.90F
HOUMA*         MOSUNNY   90  72  55 NE8       29.88F HX  96
PORT FOURCHON* CLEAR     84  72  65 E14       29.89F

$$

MSZ070-080>082-242100-
SOUTHERN MISSISSIPPI

CITY           SKY/WX    TMP DP  RH WIND       PRES   REMARKS
MCCOMB         MOSUNNY   84  69  60 CALM      29.92F
GULFPORT       MOSUNNY   85  69  58 SE10      29.90F
BILOXI         MOSUNNY   86  70  59 SE7       29.91F
PASCAGOULA     MOSUNNY   86  66  51 E7        29.92F
STENNIS ARPT*  MOSUNNY   84  70  61 SE10      29.92F

$$

COASTAL OBSERVATIONS
LAKE AND NEARSHORE STATIONS

STATION/POSITION TIME  TEMP    WIND        PRES    WAVE
                       AIR SEA DIR/SP/G            HT/PER
                 (UTC) (F)     (DEG/KT/KT) (MB)    (FT/S)
PASCAGOULA       1942   84      80/ 11/ 14 1012.8
WAVELAND YACHT   1942   80 85  130/ 11/ 14 1013.1
GRAND ISLE       1942   84 86   90/ 11/ 14 1012.3
SOUTHWEST PASS   1942   84      90/ 18/ 23   N/A
NEW CANAL        1942   83 83   70/ 12/ 15 1012.4
SHELL BEACH      1942   82 87  100/ 12/ 18 1012.7

OFFSHORE STATIONS

STATION/POSITION TIME  TEMP    WIND        PRES    WAVE
                       AIR SEA DIR/SP/G            HT/PER
                 (UTC) (F)     (DEG/KT/KT) (MB)    (FT/S)
64 S DAUPHIN ISL 1950   78 83   70/ 16/ 19 1012.3    5/ 6

$$




USA.gov is the U.S. government's official web portal to all federal, state and local government web resources and services.